全部
Mount Keith Airport (Mount Keith, Western Australia) WME 天气
|
Mount Keith, Western Australia (WME / YMNE)
晴天
微风 |
|
20 °C |
There is no TAF data available at WME or any nearby airports.
WME近期METAR历史数据
| Date | Time (AWST) | Flight Rules | Wind Dir. | Speed | Type | Height AGL (ft) | Visibility | Temp (°C) | Temp (°F) | Dew Point (°C) | Dew Point (°F) | Rel. Humid. | Pressure | Density Altitude | Remarks |
|---|---|---|---|---|---|---|---|---|---|---|---|---|---|---|---|
| 04-五月 | 14:00 | VFR | 90° | 8 kt | 10000 meters | 20° | 68° | 4° | 39° | 35% | 1023 mb | 2,340 ft | |||
| 04-五月 | 13:00 | VFR | 150° | 9 kt | 10000 meters | 19° | 66° | 4° | 39° | 37% | 1024 mb | 2,191 ft | |||
| 04-五月 | 12:00 | VFR | 110° | 10 kt | 10000 meters | 18° | 64° | 4° | 39° | 39% | 1025 mb | 2,041 ft | |||
| 04-五月 | 11:00 | VFR | 110° | 11 kt | 10000 meters | 17° | 62° | 4° | 39° | 42% | 1026 mb | 1,892 ft | |||
| 04-五月 | 10:00 | VFR | 100° | 10 kt | 10000 meters | 17° | 62° | 5° | 41° | 45% | 1027 mb | 1,862 ft | |||
| 04-五月 | 09:00 | VFR | 110° | 11 kt | 10000 meters | 15° | 59° | 5° | 41° | 51% | 1027 mb | 1,622 ft | |||
| 04-五月 | 08:00 | VFR | 110° | 8 kt | 10000 meters | 13° | 55° | 5° | 41° | 58% | 1027 mb | 1,382 ft | |||
| 04-五月 | 07:00 | VFR | 120° | 3 kt | 10000 meters | 9° | 48° | 5° | 41° | 76% | 1026 mb | 932 ft | |||
| 04-五月 | 06:00 | VFR | 120° | 4 kt | 10000 meters | 8° | 46° | 4° | 39° | 76% | 1025 mb | 841 ft | |||
| 04-五月 | 05:00 | VFR | 120° | 5 kt | 10000 meters | 9° | 48° | 5° | 41° | 76% | 1025 mb | 961 ft | |||
| 04-五月 | 04:00 | VFR | 120° | 4 kt | 10000 meters | 9° | 48° | 4° | 39° | 71% | 1025 mb | 961 ft | |||
| 04-五月 | 03:00 | VFR | 120° | 3 kt | 10000 meters | 9° | 48° | 4° | 39° | 71% | 1024 mb | 991 ft | |||
| 04-五月 | 02:00 | VFR | 120° | 5 kt | 10000 meters | 11° | 51° | 5° | 41° | 66% | 1024 mb | 1,231 ft | |||
| 04-五月 | 01:00 | VFR | 120° | 5 kt | 10000 meters | 11° | 51° | 4° | 39° | 62% | 1024 mb | 1,231 ft | |||
| 04-五月 | 00:00 | VFR | 120° | 6 kt | 10000 meters | 12° | 53° | 4° | 39° | 58% | 1024 mb | 1,351 ft | |||
| 03-五月 | 23:00 | VFR | 130° | 7 kt | 10000 meters | 12° | 53° | 3° | 37° | 54% | 1024 mb | 1,351 ft | |||
| 03-五月 | 22:00 | VFR | 120° | 6 kt | 10000 meters | 12° | 53° | 3° | 37° | 54% | 1024 mb | 1,351 ft | |||
| 03-五月 | 21:00 | VFR | 120° | 5 kt | 10000 meters | 13° | 55° | 3° | 37° | 51% | 1024 mb | 1,471 ft | |||
| 03-五月 | 20:00 | VFR | 120° | 5 kt | 10000 meters | 14° | 57° | 3° | 37° | 47% | 1024 mb | 1,591 ft | |||
| 03-五月 | 19:00 | VFR | 120° | 5 kt | 10000 meters | 15° | 59° | 2° | 35° | 41% | 1023 mb | 1,740 ft | |||
| 03-五月 | 18:00 | VFR | 130° | 6 kt | 10000 meters | 17° | 62° | 2° | 35° | 36% | 1023 mb | 1,980 ft | |||
| 03-五月 | 17:00 | VFR | 150° | 9 kt | 10000 meters | 19° | 66° | 2° | 35° | 32% | 1022 mb | 2,250 ft | |||
| 03-五月 | 16:00 | VFR | 130° | 9 kt | 10000 meters | 19° | 66° | 2° | 35° | 32% | 1022 mb | 2,250 ft | |||
| 03-五月 | 15:00 | VFR | 140° | 11 kt | 10000 meters | 19° | 66° | 2° | 35° | 32% | 1022 mb | 2,250 ft |
登录
| 您的浏览器不支持. 升级您的浏览器 |
